FENGYUN 1C DEB, 30322

Orbit data source: Space-Track

FENGYUN 1C DEB, 30322 is space debris in SSO originally from a launch on Mon, 10 May 1999 UTC launched from the Taiyaun Space Center, China (TSC). Fengyun 1C debris stems from the Chinese weather satellite Fengyun-1C, which was intentionally destroyed by a Chinese anti-satellite missile in 2007. This event dramatically increased the amount of space debris, with thousands of trackable fragments posing hazards to satellites and human spaceflight. The Fengyun 1C debris cloud has become a focal point in discussions about space sustainability and the need for international regulations to prevent the creation of new debris.

Loading next visibility...
FENGYUN 1C DEB details
Identifier
30322, 1999-025AAK
Orbit
SSO
Last TLE update10 hours ago
Origin
Flag of CNCASC (CN / PRC)
ManufacturerUnknown
MissionSpacecraft
Bus & MotorUnknown
MassUnknown
Launch date (UTC)
1999-05-10 (26 years ago)
Launch vehicleUnknown
Launch site
Taiyaun Space Center, China (TSC)
Object type
Payload
Rocket body
Debris
Shape & HBRUnknown
Radar Cross SectionSmall (<0.1 m²)

Expand to show TLE details & history

TLE from 10 hours ago
0 FENGYUN 1C DEB
1 30322U 99025AAK 25025.44700653  .00003806  00000-0  22382-2 0  9994
2 30322  98.4285 266.0938 0129817  83.9104 277.6839 14.04418547916876
Epoch: 2025-01-25T10:43Z
Definitive object data (Epoch: 2025-01-25T10:43:41.364Z)
Latitude0.00001°
Longitude-19.82425°
Altitude870.043 km
Speed7.423 km/s
True Right ascension17h 44m 22s
True Declination0° 00' 00"
Sunlit
Object was in daylight at TLE epoch
Visualization TLE readout
Latitude-14.36919°
Longitude-17.2659°
Altitude894.739 km
Speed7.399 km/s
Apparent Right ascension15h 08m 00s
Apparent Declination-41° 11' 06"
Sunlit
Object is in daylight
Visualization observer readout
Local Sidereal Time22:16:18
Azimuth243.207° WSW
Elevation-36.298°
Doppler factor1
Orbital elements
Apogee altitude969.867 km
Perigee altitude781.533 km
Semi-major axis7,253.837 km
Eccentricity0.0129817
Inclination98.4285°
RAAN266.0938°
Arg. of periapsis83.9104°
True anomaly276.20662°
Mean anomaly277.6839°
Eccentric anomaly276.94556°
Mean motion3.51311 °/min
BSTAR0.0022382
Orbital period102.47 mins
Loading maneuver chart data...
Loading historical data...
Loading historical data...
Loading historical data...
Loading historical data...
Loading historical data...
Loading historical data...
Loading historical data...

FENGYUN 1C DEB Visibility forecast

Observer location: undefined°, undefined

Span
Click to sort rows by Start time (UTC) header in descending order
Start Az.
Max El. time (UTC)
Max El. Az.
Max El.
End time (UTC)
End Az.
10 mins2025-01-26 04:24:07.034Z24.106° NE2025-01-26 04:29:07.034Z112.767° SE38.863°2025-01-26 04:34:07.034Z177.735° S
5 mins2025-01-26 06:08:07.034Z319.325° NNW2025-01-26 06:10:07.034Z290.749° WNW18.119°2025-01-26 06:13:07.034Z255.098° W
9 mins2025-01-26 15:55:07.034Z168.033° S2025-01-26 15:59:07.034Z285.518° WNW44.868°2025-01-26 16:04:07.034Z345.763° N
|